User: anonymous   Login
Location: Gu�tanj
(46.5431°N, 14.9692°E)
Time: 05:58:51
(UTC+00:00)
Language:

CZ-2D R/B - Orbit

View from above orbital plane
View from above orbital plane
View from above satellite
View from above satellite

Ground track
Ground track

The orbit data is extracted from the following two-line orbital elements,

1 28738U 05024B   21128.34911722  .00000324  00000-0  22263-4 0  9990
2 28738  97.3630 145.8008 0013007 134.9243 225.3045 15.12376916870525
Epoch (UTC): 08 May 2021 08:22:43
Eccentricity: 0.0013007
inclination: 97.3630°
perigee height: 520 km
apogee height: 538 km
right ascension of ascending node: 145.8008°
argument of perigee: 134.9243°
revolutions per day: 15.12376916
mean anomaly at epoch: 225.3045°
orbit number at epoch: 87052

The dashed part of the orbit path shows where the satellite is in the earth's shadow,  

DLR